"read_dt","SO2 (ppb)","flags","PMT voltage (V)","lamp voltage (V)","lamp intensity (Hz)","internal temp (C)","react chamber temp (C)","sample flow (l/min)","pres (mmHg)","SO2 bkg (ppb)","SO2 coefficient"
2014-06-30 00:00:00,1921E-3,5C000000,-0724,0836,11882,029.2,045.5,0.481,731.3,01.19,0.508
2014-06-30 00:01:00,1846E-3,5C000000,-0724,0835,12221,029.2,045.5,0.481,731.3,01.19,0.508
2014-06-30 00:02:00,1913E-3,5C000000,-0724,0837,12278,029.2,045.5,0.481,731.3,01.19,0.508
2014-06-30 00:03:00,1893E-3,5C000000,-0724,0835,12132,029.2,045.5,0.481,731.2,01.19,0.508
2014-06-30 00:04:00,1908E-3,5C000000,-0724,0836,12082,029.3,045.5,0.480,731.2,01.19,0.508
2014-06-30 00:05:00,1690E-3,5C000000,-0724,0835,12110,029.3,045.5,0.480,731.3,01.19,0.508
2014-06-30 00:06:00,1879E-3,5C000000,-0724,0836,12138,029.3,045.6,0.480,731.3,01.19,0.508
2014-06-30 00:07:00,1864E-3,5C000000,-0724,0836,12069,029.3,045.5,0.481,731.2,01.19,0.508
2014-06-30 00:08:00,1917E-3,5C000000,-0724,0835,12249,029.3,045.5,0.481,731.2,01.19,0.508
2014-06-30 00:09:00,1828E-3,5C000000,-0724,0837,12096,029.4,045.5,0.481,731.1,01.19,0.508
2014-06-30 00:10:00,1829E-3,5C000000,-0724,0836,12207,029.4,045.5,0.481,731.2,01.19,0.508
2014-06-30 00:11:00,1792E-3,5C000000,-0724,0835,11992,029.4,045.5,0.481,731.1,01.19,0.508
2014-06-30 00:12:00,1981E-3,5C000000,-0724,0835,12014,029.4,045.5,0.481,731.2,01.19,0.508
2014-06-30 00:13:00,1832E-3,5C000000,-0724,0837,12215,029.5,045.5,0.480,731.0,01.19,0.508
2014-06-30 00:14:00,1869E-3,5C000000,-0724,0837,12113,029.5,045.5,0.480,731.2,01.19,0.508
2014-06-30 00:15:00,1864E-3,5C000000,-0724,0836,12181,029.5,045.5,0.480,731.2,01.19,0.508
2014-06-30 00:16:00,1741E-3,5C000000,-0724,0836,12221,029.5,045.5,0.480,731.1,01.19,0.508
2014-06-30 00:17:00,1725E-3,5C000000,-0724,0837,12110,029.5,045.5,0.480,731.2,01.19,0.508
2014-06-30 00:18:00,1717E-3,5C000000,-0724,0837,12163,029.5,045.6,0.480,731.1,01.19,0.508
2014-06-30 00:19:00,1713E-3,5C000000,-0724,0837,12203,029.6,045.5,0.480,731.1,01.19,0.508
2014-06-30 00:20:00,1772E-3,5C000000,-0724,0836,12110,029.6,045.5,0.480,731.0,01.19,0.508
2014-06-30 00:21:00,1833E-3,5C000000,-0724,0835,12035,029.6,045.5,0.480,731.1,01.19,0.508
2014-06-30 00:22:00,1762E-3,5C000000,-0724,0836,12223,029.6,045.6,0.480,731.0,01.19,0.508
2014-06-30 00:23:00,1789E-3,5C000000,-0724,0836,12091,029.6,045.5,0.480,731.0,01.19,0.508
2014-06-30 00:24:00,1836E-3,5C000000,-0724,0837,12266,029.6,045.5,0.480,731.0,01.19,0.508
2014-06-30 00:25:00,1919E-3,5C000000,-0724,0836,12241,029.6,045.5,0.480,731.1,01.19,0.508
2014-06-30 00:26:00,1915E-3,5C000000,-0724,0837,12123,029.7,045.6,0.480,730.9,01.19,0.508
2014-06-30 00:27:00,1921E-3,5C000000,-0724,0836,12049,029.7,045.6,0.480,731.0,01.19,0.508
2014-06-30 00:28:00,1769E-3,5C000000,-0724,0837,11946,029.7,045.5,0.480,730.9,01.19,0.508
2014-06-30 00:29:00,1644E-3,5C000000,-0724,0835,12223,029.7,045.5,0.480,731.0,01.19,0.508
2014-06-30 00:30:00,1861E-3,5C000000,-0724,0836,11982,029.7,045.5,0.480,731.0,01.19,0.508
2014-06-30 00:31:00,1808E-3,5C000000,-0724,0836,12014,029.7,045.6,0.480,730.9,01.19,0.508
2014-06-30 00:32:00,1835E-3,5C000000,-0724,0836,12141,029.8,045.6,0.480,730.9,01.19,0.508
2014-06-30 00:33:00,1733E-3,5C000000,-0724,0836,12199,029.8,045.5,0.480,731.0,01.19,0.508
2014-06-30 00:34:00,1781E-3,5C000000,-0724,0837,12179,029.8,045.5,0.480,730.9,01.19,0.508
2014-06-30 00:35:00,1809E-3,5C000000,-0724,0836,12042,029.8,045.5,0.480,731.0,01.19,0.508
2014-06-30 00:36:00,1804E-3,5C000000,-0724,0836,12053,029.8,045.6,0.480,730.7,01.19,0.508
2014-06-30 00:37:00,1859E-3,5C000000,-0724,0836,12193,029.8,045.6,0.480,730.8,01.19,0.508
2014-06-30 00:38:00,1776E-3,5C000000,-0724,0836,12178,029.8,045.6,0.480,730.8,01.19,0.508
2014-06-30 00:39:00,1887E-3,5C000000,-0724,0837,12079,029.8,045.6,0.480,730.8,01.19,0.508
2014-06-30 00:40:00,1735E-3,5C000000,-0724,0836,12148,029.9,045.5,0.480,730.8,01.19,0.508
2014-06-30 00:41:00,1820E-3,5C000000,-0724,0836,12319,029.9,045.5,0.480,730.9,01.19,0.508
2014-06-30 00:42:00,1795E-3,5C000000,-0724,0836,12283,029.9,045.5,0.480,730.8,01.19,0.508
2014-06-30 00:43:00,1768E-3,5C000000,-0724,0836,12318,029.9,045.5,0.480,730.8,01.19,0.508
2014-06-30 00:44:00,1757E-3,5C000000,-0724,0837,12021,029.9,045.6,0.480,730.8,01.19,0.508
2014-06-30 00:45:00,1892E-3,5C000000,-0724,0835,12033,029.9,045.5,0.480,730.7,01.19,0.508
2014-06-30 00:46:00,1730E-3,5C000000,-0724,0837,12136,030.0,045.5,0.480,730.8,01.19,0.508
2014-06-30 00:47:00,1954E-3,5C000000,-0724,0836,12186,029.9,045.5,0.480,730.8,01.19,0.508
2014-06-30 00:48:00,1867E-3,5C000000,-0724,0836,12039,030.0,045.6,0.479,730.6,01.19,0.508
2014-06-30 00:49:00,1897E-3,5C000000,-0724,0836,12160,030.0,045.6,0.479,730.8,01.19,0.508
2014-06-30 00:50:00,1838E-3,5C000000,-0724,0835,12233,030.0,045.5,0.479,730.5,01.19,0.508
2014-06-30 00:51:00,1784E-3,5C000000,-0724,0836,12165,030.0,045.5,0.479,730.7,01.19,0.508
2014-06-30 00:52:00,1728E-3,5C000000,-0724,0836,12156,030.0,045.5,0.479,730.8,01.19,0.508
2014-06-30 00:53:00,1814E-3,5C000000,-0724,0836,12124,030.0,045.5,0.479,730.8,01.19,0.508
2014-06-30 00:54:00,1804E-3,5C000000,-0724,0837,11984,030.0,045.5,0.479,730.7,01.19,0.508
2014-06-30 00:55:00,1811E-3,5C000000,-0724,0836,12189,030.0,045.6,0.479,730.8,01.19,0.508
2014-06-30 00:56:00,1869E-3,5C000000,-0724,0837,12057,030.1,045.5,0.479,730.8,01.19,0.508
2014-06-30 00:57:00,1855E-3,5C000000,-0724,0837,12056,030.1,045.5,0.480,730.8,01.19,0.508
2014-06-30 00:58:00,1818E-3,5C000000,-0724,0836,12306,030.1,045.6,0.480,730.7,01.19,0.508
2014-06-30 00:59:00,1842E-3,5C000000,-0724,0836,12205,030.1,045.6,0.480,730.7,01.19,0.508
2014-06-30 01:00:00,1794E-3,5C000000,-0724,0836,12015,030.1,045.6,0.480,730.8,01.19,0.508
2014-06-30 01:01:00,1860E-3,5C000000,-0724,0836,12203,030.1,045.6,0.480,730.8,01.19,0.508
2014-06-30 01:02:00,1908E-3,5C000000,-0724,0836,12018,030.1,045.5,0.479,730.8,01.19,0.508
2014-06-30 01:03:00,1767E-3,5C000000,-0724,0837,12085,030.1,045.6,0.479,730.9,01.19,0.508
2014-06-30 01:04:00,1850E-3,5C000000,-0724,0836,12032,030.1,045.6,0.479,730.8,01.19,0.508
2014-06-30 01:05:00,1774E-3,5C000000,-0724,0837,12069,030.1,045.6,0.479,730.8,01.19,0.508
2014-06-30 01:06:00,1815E-3,5C000000,-0724,0836,12081,030.1,045.6,0.479,730.8,01.19,0.508
2014-06-30 01:07:00,1640E-3,5C000000,-0724,0837,12071,030.1,045.6,0.479,730.8,01.19,0.508
2014-06-30 01:08:00,1875E-3,5C000000,-0724,0837,12104,030.2,045.5,0.479,730.9,01.19,0.508
2014-06-30 01:09:00,1814E-3,5C000000,-0724,0838,12080,030.2,045.5,0.479,730.8,01.19,0.508
2014-06-30 01:10:00,1726E-3,5C000000,-0724,0837,11865,030.2,045.6,0.479,730.7,01.19,0.508
2014-06-30 01:11:00,1670E-3,5C000000,-0724,0836,12253,030.2,045.6,0.479,730.7,01.19,0.508
2014-06-30 01:12:00,1802E-3,5C000000,-0724,0837,12158,030.2,045.6,0.479,730.7,01.19,0.508
2014-06-30 01:13:00,1801E-3,5C000000,-0724,0836,12237,030.2,045.6,0.479,730.7,01.19,0.508
2014-06-30 01:14:00,1730E-3,5C000000,-0724,0837,12248,030.2,045.6,0.479,730.8,01.19,0.508
2014-06-30 01:15:00,1913E-3,5C000000,-0724,0836,12168,030.2,045.6,0.479,730.7,01.19,0.508
2014-06-30 01:16:00,1851E-3,5C000000,-0724,0837,11970,030.2,045.5,0.479,730.7,01.19,0.508
2014-06-30 01:17:00,1755E-3,5C000000,-0724,0836,12146,030.2,045.6,0.479,730.7,01.19,0.508
2014-06-30 01:18:00,1830E-3,5C000000,-0724,0837,12167,030.2,045.6,0.479,730.7,01.19,0.508
2014-06-30 01:19:00,1837E-3,5C000000,-0724,0837,12299,030.3,045.6,0.479,730.6,01.19,0.508
2014-06-30 01:20:00,1859E-3,5C000000,-0724,0836,12242,030.3,045.6,0.479,730.6,01.19,0.508
2014-06-30 01:21:00,1831E-3,5C000000,-0724,0837,12186,030.3,045.6,0.479,730.6,01.19,0.508
2014-06-30 01:22:00,1796E-3,5C000000,-0724,0837,12193,030.3,045.6,0.479,730.7,01.19,0.508
2014-06-30 01:23:00,1723E-3,5C000000,-0724,0838,12051,030.3,045.6,0.479,730.7,01.19,0.508
2014-06-30 01:24:00,1788E-3,5C000000,-0724,0836,11998,030.3,045.6,0.479,730.7,01.19,0.508
2014-06-30 01:25:00,1780E-3,5C000000,-0724,0836,12208,030.3,045.6,0.479,730.7,01.19,0.508
2014-06-30 01:26:00,1686E-3,5C000000,-0724,0837,12140,030.3,045.6,0.479,730.7,01.19,0.508
2014-06-30 01:27:00,1759E-3,5C000000,-0724,0837,12262,030.4,045.6,0.479,730.7,01.19,0.508
2014-06-30 01:28:00,1884E-3,5C000000,-0724,0837,12126,030.3,045.6,0.479,730.7,01.19,0.508
2014-06-30 01:29:00,1958E-3,5C000000,-0724,0837,11983,030.3,045.6,0.479,730.7,01.19,0.508
2014-06-30 01:30:00,1795E-3,5C000000,-0724,0836,11865,030.4,045.5,0.479,730.7,01.19,0.508
2014-06-30 01:31:00,1855E-3,5C000000,-0724,0837,12267,030.4,045.5,0.479,730.7,01.19,0.508
2014-06-30 01:32:00,1763E-3,5C000000,-0724,0836,12154,030.4,045.6,0.479,730.7,01.19,0.508
2014-06-30 01:33:00,1781E-3,5C000000,-0724,0837,12182,030.4,045.6,0.479,730.6,01.19,0.508
2014-06-30 01:34:00,1656E-3,5C000000,-0724,0835,12023,030.4,045.6,0.479,730.7,01.19,0.508
2014-06-30 01:35:00,1899E-3,5C000000,-0724,0836,12290,030.4,045.6,0.479,730.5,01.19,0.508
2014-06-30 01:36:00,1885E-3,5C000000,-0724,0837,12102,030.4,045.6,0.479,730.5,01.19,0.508
2014-06-30 01:37:00,1828E-3,5C000000,-0724,0836,12101,030.4,045.6,0.479,730.5,01.19,0.508
2014-06-30 01:38:00,1893E-3,5C000000,-0724,0836,12125,030.4,045.6,0.478,730.4,01.19,0.508
2014-06-30 01:39:00,1899E-3,5C000000,-0724,0837,12005,030.4,045.6,0.478,730.4,01.19,0.508
2014-06-30 01:40:00,1977E-3,5C000000,-0724,0837,12175,030.4,045.6,0.478,730.5,01.19,0.508
2014-06-30 01:41:00,1730E-3,5C000000,-0724,0836,12175,030.4,045.6,0.478,730.5,01.19,0.508
2014-06-30 01:42:00,1937E-3,5C000000,-0724,0836,12164,030.5,045.6,0.479,730.4,01.19,0.508
2014-06-30 01:43:00,1980E-3,5C000000,-0724,0835,12154,030.5,045.6,0.479,730.4,01.19,0.508
2014-06-30 01:44:00,1910E-3,5C000000,-0724,0836,12123,030.5,045.6,0.479,730.4,01.19,0.508
2014-06-30 01:45:00,1942E-3,5C000000,-0724,0836,12149,030.5,045.5,0.479,730.5,01.19,0.508
2014-06-30 01:46:00,1712E-3,5C000000,-0724,0836,12051,030.5,045.6,0.479,730.4,01.19,0.508
2014-06-30 01:47:00,1892E-3,5C000000,-0724,0837,12119,030.5,045.6,0.479,730.4,01.19,0.508
2014-06-30 01:48:00,1845E-3,5C000000,-0724,0836,12122,030.5,045.6,0.478,730.4,01.19,0.508
2014-06-30 01:49:00,1782E-3,5C000000,-0724,0836,12063,030.5,045.6,0.478,730.4,01.19,0.508
2014-06-30 01:50:00,1845E-3,5C000000,-0724,0836,12069,030.5,045.6,0.478,730.4,01.19,0.508
2014-06-30 01:51:00,1779E-3,5C000000,-0724,0837,12221,030.5,045.6,0.479,730.5,01.19,0.508
2014-06-30 01:52:00,1800E-3,5C000000,-0724,0836,11992,030.5,045.6,0.479,730.4,01.19,0.508
2014-06-30 01:53:00,1784E-3,5C000000,-0724,0837,12073,030.5,045.6,0.479,730.4,01.19,0.508
2014-06-30 01:54:00,1764E-3,5C000000,-0724,0837,12196,030.5,045.6,0.479,730.4,01.19,0.508
2014-06-30 01:55:00,1998E-3,5C000000,-0724,0837,12237,030.5,045.6,0.479,730.4,01.19,0.508
2014-06-30 01:56:00,1884E-3,5C000000,-0724,0837,11977,030.5,045.6,0.478,730.4,01.19,0.508
2014-06-30 01:57:00,1897E-3,5C000000,-0724,0837,12109,030.5,045.6,0.478,730.4,01.19,0.508
2014-06-30 01:58:00,2021E-3,5C000000,-0724,0836,12154,030.6,045.6,0.478,730.4,01.19,0.508
2014-06-30 01:59:00,1821E-3,5C000000,-0724,0836,12128,030.6,045.6,0.479,730.4,01.19,0.508
2014-06-30 02:00:00,1896E-3,5C000000,-0724,0836,12272,030.6,045.6,0.479,730.5,01.19,0.508
2014-06-30 02:01:00,1860E-3,5C000000,-0724,0837,12090,030.6,045.6,0.479,730.5,01.19,0.508
2014-06-30 02:02:00,1775E-3,5C000000,-0724,0837,12269,030.6,045.6,0.479,730.5,01.19,0.508
2014-06-30 02:03:00,1781E-3,5C000000,-0724,0836,12165,030.6,045.6,0.478,730.5,01.19,0.508
2014-06-30 02:04:00,1654E-3,5C000000,-0724,0837,12235,030.6,045.6,0.478,730.5,01.19,0.508
2014-06-30 02:05:00,1844E-3,5C000000,-0724,0837,12299,030.6,045.6,0.478,730.5,01.19,0.508
2014-06-30 02:06:00,1923E-3,5C000000,-0724,0836,12064,030.6,045.6,0.479,730.6,01.19,0.508
2014-06-30 02:07:00,1842E-3,5C000000,-0724,0837,12197,030.6,045.6,0.479,730.5,01.19,0.508
2014-06-30 02:08:00,1799E-3,5C000000,-0724,0837,12139,030.6,045.6,0.479,730.4,01.19,0.508
2014-06-30 02:09:00,1929E-3,5C000000,-0724,0836,11965,030.6,045.6,0.479,730.5,01.19,0.508
2014-06-30 02:10:00,1855E-3,5C000000,-0724,0837,12159,030.6,045.6,0.478,730.6,01.19,0.508
2014-06-30 02:11:00,1849E-3,5C000000,-0724,0837,11935,030.6,045.6,0.478,730.6,01.19,0.508
2014-06-30 02:12:00,1838E-3,5C000000,-0724,0836,11940,030.6,045.6,0.478,730.6,01.19,0.508
2014-06-30 02:13:00,1861E-3,5C000000,-0724,0837,12129,030.6,045.5,0.479,730.7,01.19,0.508
2014-06-30 02:14:00,1817E-3,5C000000,-0724,0836,12006,030.6,045.6,0.479,730.7,01.19,0.508
2014-06-30 02:15:00,1857E-3,5C000000,-0724,0836,12019,030.6,045.6,0.479,730.6,01.19,0.508
2014-06-30 02:16:00,1845E-3,5C000000,-0724,0837,12106,030.6,045.6,0.478,730.7,01.19,0.508
2014-06-30 02:17:00,1834E-3,5C000000,-0724,0837,12349,030.7,045.6,0.478,730.7,01.19,0.508
2014-06-30 02:18:00,1993E-3,5C000000,-0724,0837,11992,030.7,045.6,0.478,730.6,01.19,0.508
2014-06-30 02:19:00,1837E-3,5C000000,-0724,0837,12184,030.7,045.6,0.479,730.7,01.19,0.508
2014-06-30 02:20:00,1871E-3,5C000000,-0724,0836,12347,030.7,045.6,0.479,730.6,01.19,0.508
2014-06-30 02:21:00,1798E-3,5C000000,-0724,0837,12205,030.7,045.6,0.479,730.6,01.19,0.508
2014-06-30 02:22:00,1781E-3,5C000000,-0724,0837,12167,030.7,045.6,0.478,730.6,01.19,0.508
2014-06-30 02:23:00,1835E-3,5C000000,-0724,0837,12186,030.7,045.6,0.478,730.6,01.19,0.508
2014-06-30 02:24:00,1726E-3,5C000000,-0724,0836,12268,030.7,045.6,0.478,730.6,01.19,0.508
2014-06-30 02:25:00,1814E-3,5C000000,-0724,0837,12020,030.7,045.6,0.479,730.6,01.19,0.508
2014-06-30 02:26:00,1913E-3,5C000000,-0724,0836,12100,030.7,045.6,0.479,730.7,01.19,0.508
2014-06-30 02:27:00,1779E-3,5C000000,-0724,0836,12224,030.7,045.6,0.478,730.6,01.19,0.508
2014-06-30 02:28:00,1762E-3,5C000000,-0724,0837,11881,030.7,045.6,0.478,730.6,01.19,0.508
2014-06-30 02:29:00,1874E-3,5C000000,-0724,0836,12282,030.7,045.6,0.478,730.6,01.19,0.508
2014-06-30 02:30:00,1741E-3,5C000000,-0724,0836,12112,030.7,045.6,0.478,730.6,01.19,0.508
2014-06-30 02:31:00,1730E-3,5C000000,-0724,0836,12113,030.7,045.6,0.479,730.5,01.19,0.508
2014-06-30 02:32:00,1819E-3,5C000000,-0724,0837,12087,030.8,045.6,0.479,730.6,01.19,0.508
2014-06-30 02:33:00,1798E-3,5C000000,-0724,0837,12247,030.8,045.6,0.478,730.6,01.19,0.508
2014-06-30 02:34:00,1851E-3,5C000000,-0724,0836,12216,030.8,045.6,0.478,730.6,01.19,0.508
2014-06-30 02:35:00,1785E-3,5C000000,-0724,0836,12126,030.8,045.6,0.478,730.6,01.19,0.508
2014-06-30 02:36:00,1799E-3,5C000000,-0724,0836,12249,030.8,045.6,0.479,730.6,01.19,0.508
2014-06-30 02:37:00,1749E-3,5C000000,-0724,0836,12009,030.8,045.6,0.479,730.6,01.19,0.508
2014-06-30 02:38:00,1838E-3,5C000000,-0724,0837,12153,030.8,045.6,0.478,730.7,01.19,0.508
2014-06-30 02:39:00,1914E-3,5C000000,-0724,0836,12104,030.8,045.6,0.478,730.7,01.19,0.508
2014-06-30 02:40:00,1831E-3,5C000000,-0724,0836,12089,030.8,045.6,0.478,730.7,01.19,0.508
2014-06-30 02:41:00,1919E-3,5C000000,-0724,0838,12244,030.8,045.6,0.479,730.7,01.19,0.508
2014-06-30 02:42:00,1901E-3,5C000000,-0724,0836,12336,030.8,045.6,0.478,730.6,01.19,0.508
2014-06-30 02:43:00,1761E-3,5C000000,-0724,0835,12139,030.8,045.6,0.478,730.7,01.19,0.508
2014-06-30 02:44:00,1802E-3,5C000000,-0724,0838,12018,030.8,045.6,0.478,730.7,01.19,0.508
2014-06-30 02:45:00,1849E-3,5C000000,-0724,0836,12126,030.8,045.6,0.478,730.7,01.19,0.508
2014-06-30 02:46:00,1800E-3,5C000000,-0724,0836,12013,030.8,045.6,0.479,730.6,01.19,0.508
2014-06-30 02:47:00,1909E-3,5C000000,-0724,0835,12165,030.8,045.6,0.478,730.6,01.19,0.508
2014-06-30 02:48:00,1789E-3,5C000000,-0724,0836,12141,030.8,045.6,0.478,730.7,01.19,0.508
2014-06-30 02:49:00,1817E-3,5C000000,-0724,0836,11973,030.9,045.6,0.478,730.7,01.19,0.508
2014-06-30 02:50:00,1860E-3,5C000000,-0724,0835,12208,030.9,045.6,0.479,730.6,01.19,0.508
2014-06-30 02:51:00,1869E-3,5C000000,-0724,0836,11954,030.8,045.6,0.478,730.7,01.19,0.508
2014-06-30 02:52:00,1793E-3,5C000000,-0724,0836,12107,030.9,045.6,0.478,730.7,01.19,0.508
2014-06-30 02:53:00,1802E-3,5C000000,-0724,0836,12270,030.9,045.6,0.478,730.6,01.19,0.508
2014-06-30 02:54:00,1783E-3,5C000000,-0724,0836,12200,030.9,045.6,0.478,730.6,01.19,0.508
2014-06-30 02:55:00,1935E-3,5C000000,-0724,0837,12078,030.9,045.6,0.478,730.7,01.19,0.508
2014-06-30 02:56:00,1899E-3,5C000000,-0724,0836,12279,030.9,045.6,0.478,730.6,01.19,0.508
2014-06-30 02:57:00,1842E-3,5C000000,-0724,0836,12084,030.9,045.6,0.478,730.7,01.19,0.508
2014-06-30 02:58:00,1849E-3,5C000000,-0724,0835,12112,030.9,045.6,0.478,730.6,01.19,0.508
2014-06-30 02:59:00,1795E-3,5C000000,-0724,0836,12151,030.9,045.6,0.478,730.6,01.19,0.508
2014-06-30 03:00:00,1761E-3,5C000000,-0724,0837,12284,030.9,045.6,0.478,730.7,01.19,0.508
2014-06-30 03:01:00,1837E-3,5C000000,-0724,0836,12147,030.9,045.6,0.478,730.7,01.19,0.508
2014-06-30 03:02:00,1879E-3,5C000000,-0724,0836,12225,030.9,045.6,0.478,730.7,01.19,0.508
2014-06-30 03:03:00,1835E-3,5C000000,-0724,0835,11993,030.9,045.6,0.478,730.7,01.19,0.508
2014-06-30 03:04:00,1852E-3,5C000000,-0724,0835,12141,030.9,045.6,0.478,730.7,01.19,0.508
2014-06-30 03:05:00,1729E-3,5C000000,-0724,0837,12098,030.9,045.6,0.478,730.8,01.19,0.508
2014-06-30 03:06:00,1661E-3,5C000000,-0724,0836,12026,030.9,045.6,0.478,730.7,01.19,0.508
2014-06-30 03:07:00,1711E-3,5C000000,-0724,0836,12279,030.9,045.6,0.478,730.8,01.19,0.508
2014-06-30 03:08:00,1871E-3,5C000000,-0724,0837,12142,030.9,045.6,0.478,730.8,01.19,0.508
2014-06-30 03:09:00,1832E-3,5C000000,-0724,0836,12088,031.0,045.6,0.478,730.6,01.19,0.508
2014-06-30 03:10:00,1834E-3,5C000000,-0724,0836,12035,031.0,045.6,0.478,730.7,01.19,0.508
2014-06-30 03:11:00,1931E-3,5C000000,-0724,0835,12036,030.9,045.6,0.478,730.7,01.19,0.508
2014-06-30 03:12:00,1788E-3,5C000000,-0724,0836,12094,031.0,045.6,0.478,730.7,01.19,0.508
2014-06-30 03:13:00,1723E-3,5C000000,-0724,0836,12215,031.0,045.6,0.478,730.7,01.19,0.508
2014-06-30 03:14:00,1849E-3,5C000000,-0724,0835,12234,031.0,045.6,0.478,730.7,01.19,0.508
2014-06-30 03:15:00,1742E-3,5C000000,-0724,0837,12157,031.0,045.6,0.478,730.7,01.19,0.508
2014-06-30 03:16:00,1706E-3,5C000000,-0724,0836,12149,031.0,045.6,0.478,730.8,01.19,0.508
2014-06-30 03:17:00,1778E-3,5C000000,-0724,0837,11913,031.0,045.6,0.478,730.7,01.19,0.508
2014-06-30 03:18:00,1717E-3,5C000000,-0724,0836,12152,031.0,045.6,0.478,730.7,01.19,0.508
2014-06-30 03:19:00,1853E-3,5C000000,-0724,0836,12096,031.0,045.6,0.478,730.7,01.19,0.508
2014-06-30 03:20:00,1703E-3,5C000000,-0724,0836,12247,031.0,045.6,0.478,730.7,01.19,0.508
2014-06-30 03:21:00,1783E-3,5C000000,-0724,0836,12263,031.0,045.6,0.478,730.8,01.19,0.508
2014-06-30 03:22:00,1872E-3,5C000000,-0724,0837,12225,031.0,045.6,0.478,730.7,01.19,0.508
2014-06-30 03:23:00,1724E-3,5C000000,-0724,0837,12225,031.0,045.6,0.478,730.7,01.19,0.508
2014-06-30 03:24:00,1987E-3,5C000000,-0724,0836,12061,031.0,045.6,0.478,730.7,01.19,0.508
2014-06-30 03:25:00,1917E-3,5C000000,-0724,0836,12127,031.0,045.6,0.478,730.7,01.19,0.508
2014-06-30 03:26:00,1903E-3,5C000000,-0724,0837,12216,031.0,045.6,0.478,730.6,01.19,0.508
2014-06-30 03:27:00,1845E-3,5C000000,-0724,0836,12123,031.0,045.6,0.478,730.7,01.19,0.508
2014-06-30 03:28:00,1771E-3,5C000000,-0724,0837,11933,031.0,045.6,0.478,730.7,01.19,0.508
2014-06-30 03:29:00,1853E-3,5C000000,-0724,0836,12130,031.0,045.6,0.478,730.7,01.19,0.508
2014-06-30 03:30:00,1830E-3,5C000000,-0724,0837,12087,031.0,045.6,0.478,730.7,01.19,0.508
2014-06-30 03:31:00,1769E-3,5C000000,-0724,0836,12249,031.0,045.6,0.478,730.8,01.19,0.508
2014-06-30 03:32:00,1984E-3,5C000000,-0724,0836,12069,031.0,045.6,0.478,730.7,01.19,0.508
2014-06-30 03:33:00,1839E-3,5C000000,-0724,0836,12013,031.0,045.6,0.478,730.7,01.19,0.508
2014-06-30 03:34:00,1885E-3,5C000000,-0724,0836,12191,031.0,045.6,0.478,730.7,01.19,0.508
2014-06-30 03:35:00,1915E-3,5C000000,-0724,0837,12385,031.0,045.6,0.478,730.7,01.19,0.508
2014-06-30 03:36:00,1799E-3,5C000000,-0724,0836,12007,031.0,045.6,0.478,730.7,01.19,0.508
2014-06-30 03:37:00,1733E-3,5C000000,-0724,0836,12056,031.1,045.6,0.478,730.6,01.19,0.508
2014-06-30 03:38:00,1909E-3,5C000000,-0724,0835,12215,031.0,045.6,0.478,730.6,01.19,0.508
2014-06-30 03:39:00,1775E-3,5C000000,-0724,0836,12124,031.0,045.6,0.477,730.5,01.19,0.508
2014-06-30 03:40:00,1808E-3,5C000000,-0724,0837,12329,031.1,045.6,0.478,730.5,01.19,0.508
2014-06-30 03:41:00,1719E-3,5C000000,-0724,0836,12094,031.1,045.6,0.478,730.6,01.19,0.508
2014-06-30 03:42:00,1894E-3,5C000000,-0724,0836,12154,031.1,045.6,0.478,730.5,01.19,0.508
2014-06-30 03:43:00,1785E-3,5C000000,-0724,0836,12148,031.1,045.6,0.478,730.5,01.19,0.508
2014-06-30 03:44:00,1884E-3,5C000000,-0724,0837,12142,031.1,045.6,0.478,730.5,01.19,0.508
2014-06-30 03:45:00,1833E-3,5C000000,-0724,0836,12159,031.1,045.6,0.478,730.5,01.19,0.508
2014-06-30 03:46:00,1898E-3,5C000000,-0724,0836,12202,031.1,045.6,0.478,730.4,01.19,0.508
2014-06-30 03:47:00,1840E-3,5C000000,-0724,0836,12102,031.1,045.6,0.478,730.4,01.19,0.508
2014-06-30 03:48:00,1848E-3,5C000000,-0724,0836,12120,031.1,045.6,0.478,730.4,01.19,0.508
2014-06-30 03:49:00,1768E-3,5C000000,-0724,0837,12307,031.1,045.6,0.477,730.4,01.19,0.508
2014-06-30 03:50:00,1945E-3,5C000000,-0724,0837,12093,031.1,045.6,0.478,730.4,01.19,0.508
2014-06-30 03:51:00,1808E-3,5C000000,-0724,0837,12068,031.1,045.6,0.478,730.4,01.19,0.508
2014-06-30 03:52:00,1854E-3,5C000000,-0724,0836,12148,031.1,045.6,0.477,730.6,01.19,0.508
2014-06-30 03:53:00,1830E-3,5C000000,-0724,0836,12216,031.1,045.6,0.478,730.5,01.19,0.508
2014-06-30 03:54:00,1880E-3,5C000000,-0724,0837,12033,031.1,045.6,0.478,730.5,01.19,0.508
2014-06-30 03:55:00,1955E-3,5C000000,-0724,0836,12094,031.1,045.6,0.477,730.5,01.19,0.508
2014-06-30 03:56:00,1832E-3,5C000000,-0724,0837,12130,031.1,045.6,0.478,730.7,01.19,0.508
2014-06-30 03:57:00,1867E-3,5C000000,-0724,0837,11830,031.1,045.6,0.478,730.7,01.19,0.508
2014-06-30 03:58:00,1869E-3,5C000000,-0724,0836,12099,031.1,045.6,0.478,730.7,01.19,0.508
2014-06-30 03:59:00,1816E-3,5C000000,-0724,0837,12112,031.1,045.6,0.478,730.8,01.19,0.508
2014-06-30 04:00:00,1821E-3,5C000000,-0724,0837,12005,031.1,045.6,0.478,730.7,01.19,0.508
2014-06-30 04:01:00,1854E-3,5C000000,-0724,0837,12118,031.1,045.6,0.478,730.7,01.19,0.508
2014-06-30 04:02:00,1726E-3,5C000000,-0724,0836,12106,031.1,045.6,0.478,730.7,01.19,0.508
2014-06-30 04:03:00,1939E-3,5C000000,-0724,0836,12119,031.1,045.6,0.477,730.8,01.19,0.508
2014-06-30 04:04:00,1798E-3,5C000000,-0724,0836,12155,031.1,045.6,0.478,730.7,01.19,0.508
2014-06-30 04:05:00,1700E-3,5C000000,-0724,0836,12045,031.2,045.6,0.478,730.7,01.19,0.508
2014-06-30 04:06:00,1835E-3,5C000000,-0724,0837,12072,031.2,045.6,0.477,730.7,01.19,0.508
2014-06-30 04:07:00,1843E-3,5C000000,-0724,0836,12132,031.2,045.6,0.478,730.7,01.19,0.508
2014-06-30 04:08:00,1937E-3,5C000000,-0724,0837,12053,031.2,045.6,0.478,730.7,01.19,0.508
2014-06-30 04:09:00,1920E-3,5C000000,-0724,0836,12037,031.2,045.6,0.477,730.6,01.19,0.508
2014-06-30 04:10:00,1981E-3,5C000000,-0724,0837,11991,031.2,045.6,0.478,730.7,01.19,0.508
2014-06-30 04:11:00,1915E-3,5C000000,-0724,0837,12067,031.2,045.6,0.478,730.7,01.19,0.508
2014-06-30 04:12:00,1761E-3,5C000000,-0724,0836,12185,031.2,045.6,0.477,730.7,01.19,0.508
2014-06-30 04:13:00,1785E-3,5C000000,-0724,0838,12003,031.2,045.6,0.478,730.7,01.19,0.508
2014-06-30 04:14:00,1821E-3,5C000000,-0724,0836,12001,031.2,045.6,0.478,730.7,01.19,0.508
2014-06-30 04:15:00,1762E-3,5C000000,-0724,0837,11916,031.2,045.6,0.477,730.7,01.19,0.508
2014-06-30 04:16:00,1776E-3,5C000000,-0724,0836,12058,031.2,045.6,0.478,730.7,01.19,0.508
2014-06-30 04:17:00,1890E-3,5C000000,-0724,0836,12268,031.2,045.6,0.478,730.8,01.19,0.508
2014-06-30 04:18:00,1866E-3,5C000000,-0724,0836,12053,031.2,045.6,0.478,730.7,01.19,0.508
2014-06-30 04:19:00,1821E-3,5C000000,-0724,0836,11985,031.2,045.6,0.478,730.8,01.19,0.508
2014-06-30 04:20:00,1837E-3,5C000000,-0724,0837,11997,031.2,045.6,0.478,730.8,01.19,0.508